Measurements were made at the meteorological tower in Jülich (50.90 N / 6.40 E) at an altitude of 100 m,
Responsible PI: Dr. Marc von Hobe; Forschungszentrum Jülich GmbH; IEK-7; email: m.von.hobe@fz-juelich.de,
NaN or negative numbers are fill values (i.e. no valid measurements were made at that time),
Uncertainties are given as the 1-sigma standard deviation over each 10 minute intervals. In each interval ~600 individual measurements are carried out so that the standard error of the mean is approximately sigma/sqrt(600).,
time_utc,CO2_ppm,stdev_CO2_ppm,CH4_ppm,stdev_CH4_ppm,H2O_ppm,stdev_H2O_ppm
"2014-07-01 00:05:00 000",395.185,0.808112,1.91411,0.00454152,8348.70,90.9055
"2014-07-01 00:15:00 000",396.972,1.32464,1.92109,0.00599151,8232.28,59.4274
"2014-07-01 00:25:00 000",397.141,0.855248,1.93455,0.00586655,8267.94,58.9391
"2014-07-01 00:35:00 000",396.819,1.10102,1.94096,0.00445907,8286.41,68.7789
"2014-07-01 00:45:00 000",397.194,0.606463,1.94059,0.00459910,8295.97,88.9833
"2014-07-01 00:55:00 000",397.763,0.790756,1.93761,0.00453009,8388.16,110.621
"2014-07-01 01:05:00 000",398.981,1.06076,1.93649,0.00586903,8453.37,136.634
"2014-07-01 01:15:00 000",400.063,0.881910,1.94055,0.00474129,8450.86,143.543
"2014-07-01 01:25:00 000",398.789,0.871090,1.93935,0.00486177,8486.09,161.479
"2014-07-01 01:35:00 000",398.081,1.22157,1.94252,0.00493329,8542.55,163.836
"2014-07-01 01:45:00 000",399.287,0.809763,1.95146,0.00555410,8530.61,172.302
"2014-07-01 01:55:00 000",399.947,0.738840,1.95895,0.00557067,8511.97,171.053
"2014-07-01 02:05:00 000",400.934,1.03283,1.96879,0.00558136,8538.48,174.638
"2014-07-01 02:15:00 000",403.313,1.57453,1.97643,0.00433606,8505.08,160.998
"2014-07-01 02:25:00 000",403.010,1.89220,1.97233,0.00515281,8511.15,157.601
"2014-07-01 02:35:00 000",402.345,1.69719,1.97084,0.00512603,8469.57,152.063
"2014-07-01 02:45:00 000",405.667,1.61674,1.97643,0.00670079,8498.64,153.743
"2014-07-01 02:55:00 000",413.529,2.65178,2.00567,0.00859108,8582.89,157.905
"2014-07-01 03:05:00 000",408.298,1.16260,2.00194,0.00675268,8606.39,149.881
"2014-07-01 03:15:00 000",405.894,0.843782,2.00981,0.00698900,8564.90,159.795
"2014-07-01 03:25:00 000",406.702,0.930396,2.02217,0.00484458,8569.96,148.469
"2014-07-01 03:35:00 000",406.817,0.782434,2.02183,0.00517702,8614.56,140.190
"2014-07-01 03:45:00 000",405.977,0.976633,2.02649,0.00449142,8749.53,146.396
"2014-07-01 03:55:00 000",406.571,1.38331,2.04228,0.0111629,8887.25,136.928
"2014-07-01 04:05:00 000",408.834,0.656511,2.07192,0.00479442,8994.81,142.537
"2014-07-01 04:15:00 000",407.472,0.761340,2.06807,0.00512933,9022.39,130.431
"2014-07-01 04:25:00 000",406.790,0.575266,2.07157,0.00656056,9079.06,121.140
"2014-07-01 04:35:00 000",406.445,0.575197,2.07654,0.00494893,9141.60,126.476
"2014-07-01 04:45:00 000",409.172,2.41006,2.08282,0.00488277,9213.54,140.830
"2014-07-01 04:55:00 000",413.989,1.34586,2.09504,0.00382215,9213.37,136.090
"2014-07-01 05:05:00 000",415.266,2.22896,2.09228,0.00481243,9114.20,204.795
"2014-07-01 05:15:00 000",416.760,5.06899,2.09997,0.00900734,9118.09,151.404
"2014-07-01 05:25:00 000",426.171,6.87454,2.11031,0.0110157,9181.96,172.910
"2014-07-01 05:35:00 000",431.056,3.98239,2.12268,0.00679406,9409.98,174.111
"2014-07-01 05:45:00 000",423.899,5.01782,2.11898,0.00961667,9495.75,162.892
"2014-07-01 05:55:00 000",420.335,5.44761,2.11804,0.0193270,9667.33,137.339
"2014-07-01 06:05:00 000",419.588,4.32438,2.12951,0.0262554,9451.76,199.109
"2014-07-01 06:15:00 000",425.474,2.67348,2.16018,0.0167035,9483.78,311.303
"2014-07-01 06:25:00 000",423.117,3.48870,2.13237,0.0295032,9535.17,200.439
"2014-07-01 06:35:00 000",420.971,6.18058,2.10034,0.0464238,9557.30,252.377
"2014-07-01 06:45:00 000",417.401,2.96835,2.08401,0.0254389,9332.21,156.652
"2014-07-01 06:55:00 000",412.893,2.48716,2.05094,0.0209784,9648.22,111.869
"2014-07-01 07:05:00 000",409.623,2.30859,2.03220,0.0201595,9448.53,178.167
"2014-07-01 07:15:00 000",402.605,2.24573,1.96621,0.0206759,9484.50,114.590
"2014-07-01 07:25:00 000",400.870,1.64743,1.95392,0.0177983,9029.18,350.258
"2014-07-01 07:35:00 000",400.987,0.934914,1.95523,0.00450599,9209.85,499.785
"2014-07-01 07:45:00 000",401.090,0.932755,1.94927,0.00407481,8745.74,195.129
"2014-07-01 07:55:00 000",399.976,0.845954,1.94297,0.00368272,8939.78,255.358
"2014-07-01 08:05:00 000",399.661,0.677593,1.94157,0.00365702,8774.01,115.109
"2014-07-01 08:15:00 000",398.892,1.13480,1.94498,0.00311427,9060.02,385.151
"2014-07-01 08:25:00 000",397.968,0.727752,1.93976,0.00379998,9109.66,190.233
"2014-07-01 08:35:00 000",397.433,0.767537,1.93180,0.00365777,8644.05,209.609
"2014-07-01 08:45:00 000",395.818,0.983922,1.92575,0.00429536,8575.01,133.067
"2014-07-01 08:55:00 000",396.024,0.799352,1.92748,0.00351445,8222.66,283.162
"2014-07-01 09:05:00 000",394.840,0.838389,1.92393,0.00349889,8425.94,358.446
"2014-07-01 09:15:00 000",393.223,0.908663,1.92319,0.00407523,8342.05,326.949
"2014-07-01 09:25:00 000",393.184,1.04097,1.91684,0.00351025,8364.25,144.438
"2014-07-01 09:35:00 000",393.364,1.14962,1.91954,0.00390338,8285.24,283.559
"2014-07-01 09:45:00 000",394.212,0.851037,1.92734,0.00323702,8439.13,163.254
"2014-07-01 09:55:00 000",393.777,0.859926,1.92231,0.00318994,8266.56,200.445
"2014-07-01 10:05:00 000",394.843,0.755955,1.92241,0.00357339,7762.38,194.719
"2014-07-01 10:15:00 000",394.209,0.814590,1.92280,0.00280276,7825.57,147.672
"2014-07-01 10:25:00 000",393.632,1.08278,1.92197,0.00292996,7774.21,271.642
"2014-07-01 10:35:00 000",393.479,0.808729,1.92395,0.00345099,7871.86,178.737
"2014-07-01 10:45:00 000",392.965,0.764081,1.92422,0.00314314,8094.69,254.849
"2014-07-01 10:55:00 000",392.408,0.858541,1.92683,0.00269359,8264.92,124.676
"2014-07-01 11:05:00 000",392.327,1.05077,1.92436,0.00299337,8362.32,239.737
"2014-07-01 11:15:00 000",392.262,0.788633,1.92246,0.00299953,8101.50,72.2067
"2014-07-01 11:25:00 000",391.932,0.689541,1.91995,0.00272480,8132.77,89.4550
"2014-07-01 11:35:00 000",391.723,0.703607,1.92036,0.00275581,8110.66,77.1729
"2014-07-01 11:45:00 000",391.299,0.657451,1.91900,0.00276463,8294.70,84.1041
"2014-07-01 11:55:00 000",391.117,1.00454,1.91953,0.00279142,8414.23,135.965
"2014-07-01 12:05:00 000",391.476,0.807890,1.92118,0.00305733,8232.50,87.6671
"2014-07-01 12:15:00 000",391.452,0.984307,1.92554,0.00308888,8322.30,87.9628
"2014-07-01 12:25:00 000",391.260,0.933824,1.92474,0.00309501,8286.54,98.1585
"2014-07-01 12:35:00 000",391.138,1.05776,1.92353,0.00388682,8366.67,116.695
"2014-07-01 12:45:00 000",391.792,0.963795,1.93649,0.00293540,8252.67,123.443
"2014-07-01 12:55:00 000",391.824,0.843253,1.93671,0.00301490,8332.09,102.115
"2014-07-01 13:05:00 000",391.297,0.927845,1.93383,0.00289226,8390.67,140.278
"2014-07-01 13:15:00 000",390.803,1.12491,1.93142,0.00316572,8479.66,170.428
"2014-07-01 13:25:00 000",390.303,1.04771,1.93258,0.00295861,8434.42,88.6779
"2014-07-01 13:35:00 000",390.507,0.902656,1.93716,0.00362107,8227.43,122.771
"2014-07-01 13:45:00 000",391.413,0.697780,1.93718,0.00361313,8255.87,85.0265
"2014-07-01 13:55:00 000",390.757,0.844238,1.93869,0.00325038,8289.10,88.1776
"2014-07-01 14:05:00 000",390.738,0.797465,1.93928,0.00272609,8234.31,131.408
"2014-07-01 14:15:00 000",390.078,1.10665,1.94248,0.00312873,8416.51,135.155
"2014-07-01 14:25:00 000",389.968,0.879172,1.94591,0.00312124,8471.24,120.890
"2014-07-01 14:35:00 000",390.187,0.851802,1.94814,0.00296690,8302.61,135.696
"2014-07-01 14:45:00 000",390.126,0.901585,1.94661,0.00302107,8404.53,152.097
"2014-07-01 14:55:00 000",390.412,0.835610,1.94678,0.00308830,8281.23,141.612
"2014-07-01 15:05:00 000",390.190,1.01406,1.94586,0.00294644,8313.39,133.808
"2014-07-01 15:15:00 000",390.744,0.906353,1.95024,0.00345128,8136.21,94.6818
"2014-07-01 15:25:00 000",390.580,0.815829,1.94966,0.00299003,8071.62,93.3812
"2014-07-01 15:35:00 000",389.802,1.08993,1.94711,0.00312154,8365.37,137.805
"2014-07-01 15:45:00 000",390.186,0.768691,1.94713,0.00303785,8179.02,84.4487
"2014-07-01 15:55:00 000",390.372,0.794064,1.94640,0.00307047,8131.01,81.3414
"2014-07-01 16:05:00 000",390.537,0.655401,1.94655,0.00300033,8063.78,52.0379
"2014-07-01 16:15:00 000",390.227,0.774218,1.94546,0.00309000,8093.22,74.5988
"2014-07-01 16:25:00 000",390.137,0.778808,1.94424,0.00299448,8034.81,109.373
"2014-07-01 16:35:00 000",390.444,0.834728,1.94437,0.00362842,8005.27,163.371
"2014-07-01 16:45:00 000",390.971,0.700021,1.93771,0.00297839,7715.98,66.4013
"2014-07-01 16:55:00 000",390.791,0.740300,1.93864,0.00366150,7914.84,58.7560
"2014-07-01 17:05:00 000",391.056,0.784323,1.93755,0.00426204,7794.82,91.6914
"2014-07-01 17:15:00 000",391.008,0.747580,1.93538,0.00308221,7764.76,93.2829
"2014-07-01 17:25:00 000",390.304,0.755973,1.93468,0.00284174,7951.00,63.6243
"2014-07-01 17:35:00 000",390.395,0.904576,1.93708,0.00286803,7959.24,89.0230
"2014-07-01 17:45:00 000",390.395,0.760113,1.93718,0.00274722,8007.24,85.5307
"2014-07-01 17:55:00 000",390.284,0.669993,1.93494,0.00301378,7991.09,63.8844
"2014-07-01 18:05:00 000",389.864,0.667346,1.93574,0.00331789,8074.51,75.9481
"2014-07-01 18:15:00 000",388.850,0.825895,1.93481,0.00314718,8266.91,134.881
"2014-07-01 18:25:00 000",388.533,0.669255,1.93634,0.00316795,8380.93,80.8704
"2014-07-01 18:35:00 000",388.646,0.675394,1.93781,0.00307765,8384.84,73.5032
"2014-07-01 18:45:00 000",389.524,0.686693,1.93958,0.00289335,8426.14,91.5540
"2014-07-01 18:55:00 000",389.174,0.656645,1.93619,0.00351635,8698.45,76.6009
"2014-07-01 19:05:00 000",388.951,0.702043,1.93360,0.00306036,8827.73,100.886
"2014-07-01 19:15:00 000",388.558,0.639536,1.92819,0.00321336,8851.50,58.5508
"2014-07-01 19:25:00 000",387.875,0.656258,1.92638,0.00311429,8887.27,93.2239
"2014-07-01 19:35:00 000",387.473,0.691898,1.92445,0.00312452,8984.85,63.1229
"2014-07-01 19:45:00 000",387.942,0.638626,1.92657,0.00347039,9110.11,55.8613
"2014-07-01 19:55:00 000",387.139,0.672033,1.91625,0.00356837,9248.45,68.1531
"2014-07-01 20:05:00 000",386.384,0.657804,1.91453,0.00291159,9280.80,63.4308
"2014-07-01 20:15:00 000",386.342,0.563674,1.91550,0.00280247,9358.45,52.2455
"2014-07-01 20:25:00 000",386.238,0.734966,1.91344,0.00324171,9337.03,109.976
"2014-07-01 20:35:00 000",386.712,0.633623,1.91073,0.00294326,9111.73,56.0257
"2014-07-01 20:45:00 000",387.070,0.629519,1.91221,0.00310841,9071.04,51.9896
"2014-07-01 20:55:00 000",387.457,0.630588,1.91144,0.00268534,9060.69,51.0457
"2014-07-01 21:05:00 000",387.238,0.736666,1.91182,0.00276576,9034.53,53.0209
"2014-07-01 21:15:00 000",387.681,0.642174,1.91369,0.00282266,9105.99,67.4876
"2014-07-01 21:25:00 000",388.573,0.583166,1.91296,0.00328809,9130.58,66.4901
"2014-07-01 21:35:00 000",389.500,0.763296,1.91291,0.00309697,9138.04,72.1797
"2014-07-01 21:45:00 000",390.159,0.761107,1.91377,0.00368673,9200.60,81.6757
"2014-07-01 21:55:00 000",390.525,0.665816,1.90691,0.00369771,9248.30,90.3646
"2014-07-01 22:05:00 000",391.418,1.03722,1.90782,0.00439476,9208.11,99.2784
"2014-07-01 22:15:00 000",393.601,0.743426,1.91571,0.00456168,9233.82,115.446
"2014-07-01 22:25:00 000",394.569,0.938638,1.92278,0.00427360,9331.17,129.193
"2014-07-01 22:35:00 000",395.704,0.729781,1.92633,0.00460259,9387.00,137.980
"2014-07-01 22:45:00 000",396.606,0.845238,1.93246,0.00473095,9441.45,146.963
"2014-07-01 22:55:00 000",398.706,0.834672,1.93481,0.00451237,9497.75,142.465
"2014-07-01 23:05:00 000",399.423,0.714033,1.93211,0.00471335,9532.73,154.931
"2014-07-01 23:15:00 000",400.345,0.707161,1.92520,0.00503394,9529.51,158.182
"2014-07-01 23:25:00 000",401.579,0.756986,1.92769,0.00488287,9430.29,167.230
"2014-07-01 23:35:00 000",402.846,0.754543,1.92784,0.00481432,9407.43,169.366
"2014-07-01 23:45:00 000",402.629,0.703188,1.92762,0.00477424,9419.76,163.673
"2014-07-01 23:55:00 000",401.590,0.875929,1.92372,0.00502148,9374.79,169.823
"2014-07-02 00:05:00 000",400.590,1.21816,1.92068,0.00521209,9260.05,164.502
"2014-07-02 00:15:00 000",398.873,1.54172,1.91792,0.00512255,9208.94,162.320
"2014-07-02 00:25:00 000",398.285,1.43095,1.92304,0.00497239,9191.05,156.572
"2014-07-02 00:35:00 000",397.914,0.866064,1.93324,0.00533554,9139.75,152.327
"2014-07-02 00:45:00 000",399.966,0.813714,1.93734,0.00515755,9067.74,164.870
"2014-07-02 00:55:00 000",400.460,1.74415,1.94958,0.00593767,9003.43,165.010
"2014-07-02 01:05:00 000",405.955,1.60994,1.96629,0.00579274,8992.01,158.835
"2014-07-02 01:15:00 000",404.812,0.768492,1.97314,0.00487651,8976.04,158.996
"2014-07-02 01:25:00 000",401.588,1.66092,1.96567,0.00790360,8937.47,144.031
"2014-07-02 01:35:00 000",400.473,0.827447,1.96650,0.00624124,8942.30,150.927
"2014-07-02 01:45:00 000",399.357,0.857174,1.97522,0.00654195,8968.63,152.742
"2014-07-02 01:55:00 000",399.787,1.78145,1.97717,0.00582923,8958.66,147.382
"2014-07-02 02:05:00 000",406.280,4.26124,1.97985,0.00972054,9009.83,151.797
"2014-07-02 02:15:00 000",407.161,2.55296,1.99060,0.00738982,8974.60,140.751
"2014-07-02 02:25:00 000",405.876,1.31296,1.99638,0.00950018,8930.66,153.540
"2014-07-02 02:35:00 000",406.442,2.32511,1.99884,0.00737419,8895.13,162.532
"2014-07-02 02:45:00 000",407.613,2.19935,2.00332,0.00551425,8919.84,158.283
"2014-07-02 02:55:00 000",407.082,2.01854,2.00567,0.00894490,8949.95,155.989
"2014-07-02 03:05:00 000",405.335,1.38297,2.01865,0.00560932,8941.17,146.189
"2014-07-02 03:15:00 000",404.712,1.26579,2.02312,0.00725501,8975.19,157.472
"2014-07-02 03:25:00 000",403.727,0.664567,2.04918,0.00904537,9049.50,151.470
"2014-07-02 03:35:00 000",404.487,0.626466,2.03889,0.00799660,9072.32,159.286
"2014-07-02 03:45:00 000",406.203,0.696914,2.02184,0.00815347,9252.51,176.425
"2014-07-02 03:55:00 000",406.415,0.807000,2.03243,0.0120540,9367.35,162.984
"2014-07-02 04:05:00 000",406.439,0.840794,2.01864,0.00899148,9384.48,196.301
"2014-07-02 04:15:00 000",406.842,0.726873,2.01284,0.00693722,9667.28,174.188
"2014-07-02 04:25:00 000",407.599,0.639347,2.00593,0.00579333,9730.63,173.474
"2014-07-02 04:35:00 000",407.528,0.619425,2.00250,0.00561122,9866.35,176.527
"2014-07-02 04:45:00 000",409.264,1.73395,2.03240,0.0116011,9767.32,166.303
"2014-07-02 04:55:00 000",411.141,1.20626,2.04029,0.00672740,9728.44,162.388
"2014-07-02 05:05:00 000",408.900,2.21591,2.03664,0.00802607,9616.52,176.666
"2014-07-02 05:15:00 000",408.929,3.73780,2.03201,0.00598325,9555.77,177.850
"2014-07-02 05:25:00 000",407.968,3.88942,2.02363,0.00859390,9223.16,172.011
"2014-07-02 05:35:00 000",410.446,3.43713,2.02380,0.00827347,9364.19,167.834
"2014-07-02 05:45:00 000",410.869,4.31407,2.02452,0.0118839,9658.38,238.307
"2014-07-02 05:55:00 000",422.660,1.91961,2.04816,0.00600597,10289.4,225.224
"2014-07-02 06:05:00 000",417.981,4.49770,2.04519,0.0100779,9999.20,305.198
"2014-07-02 06:15:00 000",416.089,1.58341,2.05521,0.00574761,10058.0,274.273
"2014-07-02 06:25:00 000",413.380,0.758366,2.05716,0.00581146,10191.2,175.578
"2014-07-02 06:35:00 000",412.860,0.733387,2.06218,0.00444667,11081.4,483.559
"2014-07-02 06:45:00 000",407.858,3.11294,2.03964,0.0197169,11211.4,404.327
"2014-07-02 06:55:00 000",408.901,1.12673,2.05376,0.00908301,10238.1,637.525
"2014-07-02 07:05:00 000",409.132,0.874936,2.05363,0.00644515,11513.7,723.166
"2014-07-02 07:15:00 000",409.910,0.901778,2.06430,0.00523689,11570.5,207.108
"2014-07-02 07:25:00 000",410.229,1.03287,2.06766,0.00364368,10814.8,268.908
"2014-07-02 07:35:00 000",410.893,0.875778,2.05033,0.0127641,10495.8,217.233
"2014-07-02 07:45:00 000",408.408,1.54050,2.02482,0.00917112,10574.2,244.576
"2014-07-02 07:55:00 000",408.823,2.20632,2.00714,0.00696244,10912.6,162.523
"2014-07-02 08:05:00 000",403.611,1.43451,2.01020,0.00522935,10063.6,349.011
"2014-07-02 08:15:00 000",403.893,1.22517,1.98977,0.0105425,9823.67,318.347
"2014-07-02 08:25:00 000",405.426,3.43943,1.96566,0.0143415,9578.78,554.780
"2014-07-02 08:35:00 000",400.940,1.38155,1.95195,0.00978028,10137.1,156.376
"2014-07-02 08:45:00 000",399.716,1.16537,1.95385,0.00535507,10217.0,242.101
"2014-07-02 08:55:00 000",399.440,1.01545,1.94341,0.00905778,9937.79,239.431
"2014-07-02 09:05:00 000",398.844,0.774503,1.93852,0.00347058,9683.33,149.690
"2014-07-02 09:15:00 000",396.441,0.980601,1.93452,0.00375414,9679.95,105.066
"2014-07-02 09:25:00 000",395.190,0.846663,1.93070,0.00522901,9360.43,262.709
"2014-07-02 09:35:00 000",393.593,0.764535,1.92370,0.00520853,9223.99,157.275
"2014-07-02 09:45:00 000",393.244,1.00246,1.91964,0.00419199,8752.83,149.381
"2014-07-02 09:55:00 000",392.664,0.993864,1.91777,0.00435711,8708.37,196.588
"2014-07-02 10:05:00 000",392.643,0.980212,1.92511,0.00403234,8860.95,168.154
"2014-07-02 10:15:00 000",393.047,0.893242,1.93455,0.00363526,8700.54,184.825
"2014-07-02 10:25:00 000",392.610,0.992297,1.93136,0.00307067,9086.97,310.606
"2014-07-02 10:35:00 000",392.405,1.40570,1.92886,0.00317643,8948.93,243.145
"2014-07-02 10:45:00 000",393.386,0.637277,1.92788,0.00295518,9082.35,122.983
"2014-07-02 10:55:00 000",393.240,0.929697,1.92928,0.00326974,8634.44,227.386
"2014-07-02 11:05:00 000",393.564,0.818428,1.92994,0.00293374,8433.37,183.156
"2014-07-02 11:15:00 000",393.063,0.879915,1.92886,0.00290611,8758.06,67.4521
"2014-07-02 11:25:00 000",393.747,0.834547,1.93065,0.00316310,8531.00,220.563
"2014-07-02 11:35:00 000",393.677,1.01712,1.93233,0.00312454,8470.65,136.607
"2014-07-02 11:45:00 000",392.553,1.06571,1.93091,0.00306928,8655.48,103.702
"2014-07-02 11:55:00 000",392.561,0.739922,1.92915,0.00273734,8637.38,136.005
"2014-07-02 12:05:00 000",392.223,0.925309,1.92951,0.00280467,8610.30,102.301
"2014-07-02 12:15:00 000",391.885,0.949099,1.92877,0.00292226,8632.24,104.189
"2014-07-02 12:25:00 000",390.929,1.09823,1.92777,0.00302432,8737.81,123.160
"2014-07-02 12:35:00 000",390.986,0.839186,1.92635,0.00277676,8499.62,107.863
"2014-07-02 12:45:00 000",390.607,0.909590,1.92376,0.00307509,8319.68,138.709
"2014-07-02 12:55:00 000",389.886,1.01417,1.92493,0.00353495,8509.04,263.386
"2014-07-02 13:05:00 000",389.843,0.759643,1.92618,0.00265817,8823.77,89.3039
"2014-07-02 13:15:00 000",389.280,0.717023,1.92597,0.00286335,8804.56,130.745
"2014-07-02 13:25:00 000",388.801,0.755647,1.92488,0.00324197,8612.95,111.740
"2014-07-02 13:35:00 000",387.829,0.973664,1.92361,0.00307041,8832.46,123.426
"2014-07-02 13:45:00 000",387.561,0.678186,1.92557,0.00266451,8730.38,169.854
"2014-07-02 13:55:00 000",387.206,0.713122,1.92436,0.00289634,8678.50,88.1306
"2014-07-02 14:05:00 000",386.659,0.720184,1.92217,0.00285456,8784.77,110.758
"2014-07-02 14:15:00 000",386.815,0.792500,1.92272,0.00274715,8622.59,73.9030
"2014-07-02 14:25:00 000",385.950,0.720911,1.92206,0.00273777,8727.35,93.9565
"2014-07-02 14:35:00 000",385.667,0.802291,1.92322,0.00285735,8888.16,157.044
"2014-07-02 14:45:00 000",386.164,0.737267,1.92301,0.00253883,8865.65,60.3540
"2014-07-02 14:55:00 000",386.055,0.722284,1.92389,0.00279694,8835.57,82.6746
"2014-07-02 15:05:00 000",386.151,0.613158,1.92461,0.00258906,8783.50,58.3129
"2014-07-02 15:15:00 000",385.846,0.709324,1.92476,0.00250397,8864.76,78.6448
"2014-07-02 15:25:00 000",385.953,0.777993,1.92398,0.00275929,8815.81,116.995
"2014-07-02 15:35:00 000",386.180,0.734666,1.92247,0.00274571,8803.66,102.641
"2014-07-02 15:45:00 000",386.001,0.672929,1.92017,0.00291418,8706.70,72.7674
"2014-07-02 15:55:00 000",385.605,0.785600,1.91981,0.00281468,8855.21,100.641
"2014-07-02 16:05:00 000",385.994,0.725399,1.92136,0.00272249,8828.50,128.680
"2014-07-02 16:15:00 000",386.279,0.665502,1.91989,0.00265049,8789.28,86.0627
"2014-07-02 16:25:00 000",385.980,0.768205,1.91782,0.00252100,8974.26,122.222
"2014-07-02 16:35:00 000",386.032,0.723386,1.91608,0.00264474,8832.06,119.567
"2014-07-02 16:45:00 000",386.030,0.717108,1.91498,0.00259911,8902.60,89.4331
"2014-07-02 16:55:00 000",385.919,0.814844,1.91527,0.00263006,9033.79,76.4366
"2014-07-02 17:05:00 000",386.144,0.647524,1.91551,0.00275156,8887.65,60.1037
"2014-07-02 17:15:00 000",386.005,0.749697,1.91675,0.00267700,9007.21,126.813
"2014-07-02 17:25:00 000",386.306,0.670037,1.91858,0.00295536,9091.04,82.9184
"2014-07-02 17:35:00 000",386.254,0.600198,1.92130,0.00293517,9128.20,69.6312
"2014-07-02 17:45:00 000",386.442,0.631554,1.92526,0.00390285,9106.45,49.8273
"2014-07-02 17:55:00 000",387.000,0.734628,1.93464,0.00466375,9109.58,87.3445
"2014-07-02 18:05:00 000",387.607,0.619979,1.93904,0.00347653,9015.12,62.5295
"2014-07-02 18:15:00 000",387.565,0.613326,1.94580,0.00314236,9054.05,67.7724
"2014-07-02 18:25:00 000",387.261,0.639286,1.94875,0.00280795,9011.28,51.3402
"2014-07-02 18:35:00 000",386.952,0.550521,1.94696,0.00309798,9076.47,58.6670
"2014-07-02 18:45:00 000",386.772,0.581264,1.94296,0.00289516,9038.14,61.3468
"2014-07-02 18:55:00 000",386.612,0.579070,1.94409,0.00408053,9032.13,60.2290
"2014-07-02 19:05:00 000",386.332,0.620691,1.95101,0.00335064,9156.05,59.3089
"2014-07-02 19:15:00 000",386.878,0.586004,1.94709,0.00286474,9094.88,52.5487
"2014-07-02 19:25:00 000",386.787,0.694441,1.94139,0.00312245,9167.21,60.7058
"2014-07-02 19:35:00 000",387.392,0.582052,1.94125,0.00303978,9114.17,49.8059
"2014-07-02 19:45:00 000",387.559,0.563063,1.94209,0.00274169,9099.04,48.9023
"2014-07-02 19:55:00 000",387.577,0.551143,1.94112,0.00270801,9073.23,50.0587
"2014-07-02 20:05:00 000",387.575,0.568937,1.94239,0.00300716,9095.03,51.0465
"2014-07-02 20:15:00 000",387.593,0.579580,1.94454,0.00274071,9114.25,51.2146
"2014-07-02 20:25:00 000",387.592,0.539113,1.94594,0.00277493,9131.37,45.7121
"2014-07-02 20:35:00 000",387.631,0.619612,1.94598,0.00289956,9107.60,51.1994
"2014-07-02 20:45:00 000",388.131,0.717608,1.94594,0.00281853,9091.99,85.5857
"2014-07-02 20:55:00 000",388.308,0.582650,1.94524,0.00270630,9158.36,67.6823
"2014-07-02 21:05:00 000",388.661,0.594600,1.94737,0.00279755,9216.28,64.8187
"2014-07-02 21:15:00 000",388.645,0.567020,1.94933,0.00408260,9209.07,54.2476
"2014-07-02 21:25:00 000",388.810,0.554665,1.94775,0.00279803,9161.49,56.4838
"2014-07-02 21:35:00 000",388.755,0.578786,1.94733,0.00287760,9042.37,58.1058
"2014-07-02 21:45:00 000",389.006,0.591585,1.95035,0.00277979,9015.09,49.4801
"2014-07-02 21:55:00 000",390.138,0.978450,1.96010,0.00739241,9058.56,64.3839
"2014-07-02 22:05:00 000",390.825,0.650410,1.96882,0.00539838,9202.58,59.5821
"2014-07-02 22:15:00 000",390.660,0.693696,1.95997,0.00486383,9238.91,52.4620
"2014-07-02 22:25:00 000",391.933,0.818095,1.94268,0.00399469,9238.67,50.6869
"2014-07-02 22:35:00 000",391.673,1.00022,1.94582,0.00321436,9270.58,52.9592
"2014-07-02 22:45:00 000",392.258,0.773850,1.94482,0.00319257,9256.35,52.1711
"2014-07-02 22:55:00 000",392.401,0.662201,1.93947,0.00471233,9222.68,51.6679
"2014-07-02 23:05:00 000",391.842,0.821456,1.93404,0.00312142,9219.23,53.9782
"2014-07-02 23:15:00 000",393.498,0.992386,1.92684,0.00465099,9171.57,58.4976
"2014-07-02 23:25:00 000",393.854,1.33231,1.92820,0.00302821,9161.08,50.0364
"2014-07-02 23:35:00 000",393.466,0.795452,1.92403,0.00374921,9105.28,52.5615
"2014-07-02 23:45:00 000",394.868,1.29168,1.92320,0.00302220,9066.79,49.4657
"2014-07-02 23:55:00 000",396.004,0.881663,1.92338,0.00311238,9011.40,57.1160
"2014-07-03 00:05:00 000",395.897,0.825420,1.92298,0.00334372,8932.32,57.6343
"2014-07-03 00:15:00 000",397.032,1.20312,1.92223,0.00314038,8875.95,54.8850
"2014-07-03 00:25:00 000",397.595,1.10298,1.92274,0.00335769,8808.96,52.5222
"2014-07-03 00:35:00 000",398.837,1.30490,1.91983,0.00364082,8797.61,51.7268
"2014-07-03 00:45:00 000",397.536,1.73781,1.91872,0.00340366,8811.09,51.8383
"2014-07-03 00:55:00 000",400.990,1.36103,1.91648,0.00314033,8811.97,50.5923
"2014-07-03 01:05:00 000",399.546,1.72229,1.91706,0.00292502,8812.07,48.5451
"2014-07-03 01:15:00 000",401.615,1.05397,1.91533,0.00300452,8846.46,51.5831
"2014-07-03 01:25:00 000",400.909,0.842912,1.91442,0.00285120,8849.86,52.1294
"2014-07-03 01:35:00 000",398.254,1.74579,1.91180,0.00313987,8845.38,58.6680
"2014-07-03 01:45:00 000",397.580,0.981977,1.91011,0.00360436,8855.98,50.1517
"2014-07-03 01:55:00 000",397.350,1.18521,1.91081,0.00301797,8832.74,50.0383
"2014-07-03 02:05:00 000",396.602,0.629760,1.90985,0.00308559,8811.91,50.9046